sat.trackr.live / text

‹ back to catalog

QIANFAN-114

NORAD 68641 · 2026-075F

PAYLOAD ACTIVE UNKNOWN

§ Identity

Operator
Country
PRC
Launch date
2026-04-07
Launch site
WSC
Launch vehicle
Mass (kg)
RCS (m²)

External: N2YO · Heavens-Above · Gunter

§ Orbital elements

Epoch: 2026-05-24T18:46:38.668800Z

Period
105.65 min
Inclination
88.9876°
Eccentricity
0.0010627
Mean motion
13.62969308 rev/d
Perigee alt
1,017.1 km
Apogee alt
1,032.8 km
Semi-major
7,403.1 km
B*
4.0212e-5
RAAN
323.4155°
Arg perigee
75.2262°
Mean anomaly
285.0073°
Rev number
663

§ Raw data

QIANFAN-1141 68641U 26075F   26144.78239200  .00000044  00000+0  40212-4 0  99932 68641  88.9876 323.4155 0010627  75.2262 285.0073 13.62969308  6633

JSON: /api/v1/satellites/68641 · /tle

For live sub-satellite position, see the globe view (requires WebGL).

§ Visibility from observer

Set your observer location to see the next 7 days of passes ≥ 10°. The values pass through the URL so the page stays shareable.

No JS? Fill the form by hand. The geolocation button needs JavaScript.